(270) Anahita = 1887 TA = 1926 VG

Discovered at Clinton on 1887-10-08 by C. H. F. Peters.

Orbit

Orbit type: Main Belt

Note: WebGL enabled browser required.

epoch2023-09-13.0
epoch JD2460200.5
perihelion date2021-02-11.31820
perihelion JD2459256.81820
argument of perihelion (°)80.66482
ascending node (°)254.29687
inclination (°)2.36744
eccentricity0.1499740
perihelion distance (AU)1.8688449
Tisserand w.r.t. Jupiter3.7
ΔV w.r.t. Earth (km/sec)8.4
semimajor axis (AU)2.1985738
mean anomaly (°)285.31057
mean daily motion (°/day)0.30233770
aphelion distance (AU)2.528
period (years)3.26
P-vector [x]0.90521420
P-vector [y]-0.40430518
P-vector [z]-0.13086090
Q-vector [x]0.42309090
Q-vector [y]0.82863074
Q-vector [z]0.36655858
absolute magnitude8.93
phase slope0.15
uncertainty0
referenceMPEC 2024-C06
observations used5659
oppositions65
arc length (days)45947
first opposition used1897
last opposition used2023
residual rms (arc-secs)0.50
perturbers coarse indicatorM-v
perturbers precise indicator003Ek
first observation date used1897-11-23.0
last observation date used2023-09-11.0
computer nameMPCLINUX
JD of orbit computation2456966.735443
perihelion JD uncertainty (days)6.8026E-06
argument of perihelion uncertainty (°)1.4250E-05
ascending node uncertainty (°)1.4110E-05
inclination uncertainty (°)5.8600E-07
eccentricity uncertainty 5.1964E-09
perihelion distance uncertainty (AU)1.1438E-08
Minimum Orbit Intersection Distances (in AU)
for orbit epoch: 2460200.5, reference: E2024-C06
Mercury1.46775
Venus1.14679
Earth0.86007
Mars0.50081
Jupiter2.80554
Saturn6.6626
Uranus15.9266
Neptune27.7387

Observations

5988 total observations over interval: 1897 11 22.87933 – 2023 09 11.90584
These data are available for download (format description).

Date (UT) J2000 RA J2000 Dec Magn Location Ref
1897 11 22.87933 04 15 01.73 +22 09 43.8 9.8 V 018 – Dusseldorf-Bilk AN 145
1897 11 23.78601 04 13 57.71 +22 05 45.0   045 – Vienna (since 1879) AN 150
1897 11 25.86394 04 11 30.72 +21 56 30.4   018 – Dusseldorf-Bilk AN 145
1897 11 26.73470 04 10 29.46 +21 52 36.4   045 – Vienna (since 1879) AN 150
1897 11 26.76886 04 10 26.93 +21 52 27.8   045 – Vienna (since 1879) AN 150
1899 07 29.0104 12 44.9 -06 17   800 – Harvard Observatory, Arequipa AN 179
1900 09 20.97188 00 57 08.88 +10 58 30.0 9.6 V 018 – Dusseldorf-Bilk AN 155
1900 09 21.07383 00 56.8 +10 57   024 – Heidelberg-Konigstuhl AN 153
1900 09 26.02396 00 52 50.96 +10 30 41.5   018 – Dusseldorf-Bilk AN 155
1900 09 27.06901 00 51 55.16 +10 24 21.5 10.2 V 032 – Jena AN 154
1900 09 27.85007 00 51 13.41 +10 19 32.1 9.5 V 018 – Dusseldorf-Bilk AN 155
1900 09 28.02609 00 51 03.39 +10 18 28.1 10.2 V 032 – Jena AN 154
1900 10 15.82432 00 35 12.67 +08 14 51.3   189 – Geneva (before 1967) AN 155
1900 10 19.83234 00 32 13.04 +07 47 27.4   189 – Geneva (before 1967) AN 155
1900 10 24.79038 00 29 04.20 +07 15 55.6   189 – Geneva (before 1967) AN 155
1902 03 03.87104 10 17 24.97 +06 32 06.0   024 – Heidelberg-Konigstuhl HD 16
1902 03 03.93070 10 17 21.35 +06 32 31.5   024 – Heidelberg-Konigstuhl HD 17
1902 03 06.84153 10 14 30.63 +06 49 35.2   024 – Heidelberg-Konigstuhl HD 16
1902 03 06.87326 10 14 29.03 +06 49 41.7   024 – Heidelberg-Konigstuhl HD 16
1903 07 19.19952 20 43 42.18 -14 22 34.1   786 – U.S. Naval Obs., Washington (since 1893) NO 06
1903 07 22.19548 20 41 02.03 -14 26 52.0   786 – U.S. Naval Obs., Washington (since 1893) NO 06
1903 07 23.15936 20 40 08.82 -14 28 24.2   786 – U.S. Naval Obs., Washington (since 1893) NO 06
1903 07 24.16870 20 39 12.17 -14 30 08.8   786 – U.S. Naval Obs., Washington (since 1893) NO 06
1903 07 25.18271 20 38 14.53 -14 31 58.5   786 – U.S. Naval Obs., Washington (since 1893) NO 06
1903 07 28.87941 20 34 40.63 -14 39 14.6 10 V 135 – Kasan AN 166
1903 07 31.85431 20 31 47.19 -14 45 38.1 9.1 V 135 – Kasan AN 166
1903 08 04.99852 20 27 48.51 -14 55 08.0   000 – Greenwich MPC 24259
1903 08 05.94333 20 26 55.51 -14 57 21.5   000 – Greenwich MPC 24259
1903 08 08.13567 20 24 54.70 -15 02 31.9   786 – U.S. Naval Obs., Washington (since 1893) NO 06
1903 08 08.15068 20 24 53.84 -15 02 34.0   786 – U.S. Naval Obs., Washington (since 1893) NO 06
1903 08 10.14146 20 23 07.85 -15 07 17.8   786 – U.S. Naval Obs., Washington (since 1893) NO 06
1903 08 10.15392 20 23 07.15 -15 07 18.8   786 – U.S. Naval Obs., Washington (since 1893) NO 06
1903 08 10.93747 20 22 26.72 -15 09 11.6   000 – Greenwich MPC 24259
1903 08 13.91579 20 19 59.85 -15 16 11.4   000 – Greenwich MPC 24259
1903 08 17.89406 20 17 03.53 -15 25 07.0 9.9 V 030 – Arcetri Observatory, Florence AN 165
1903 08 18.91381 20 16 22.37 -15 27 19.6   030 – Arcetri Observatory, Florence AN 165
1903 08 20.90652 20 15 07.86 -15 31 32.1   030 – Arcetri Observatory, Florence AN 165
1903 08 21.88587 20 14 33.97 -15 33 29.2   030 – Arcetri Observatory, Florence AN 165
1905 01 17.99889 08 48 31.85 +14 44 42.9   000 – Greenwich MPC 24259
1905 01 31.12012 08 33 52.13 +15 32 18.8   786 – U.S. Naval Obs., Washington (since 1893) NO 06
1905 02 05.20858 08 28 17.32 +15 50 59.2   786 – U.S. Naval Obs., Washington (since 1893) NO 06
1905 02 08.19442 08 25 10.01 +16 01 34.8   786 – U.S. Naval Obs., Washington (since 1893) NO 06
1906 05 24.00331 16 46 20.87 -22 57 40.6   032 – Jena AN 174
1906 05 28.97815 16 41 02.37 -22 40 44.5 10.7 V 032 – Jena AN 174
1906 05 31.87776 16 37 50.54 -22 30 11.4   008 – Algiers-Bouzareah AN 174
1906 05 31.89869 16 37 49.20 -22 30 06.3   008 – Algiers-Bouzareah AN 174
1906 05 31.92543 16 37 47.33 -22 30 00.7 10.3 V 030 – Arcetri Observatory, Florence AN 174
1906 06 01.87239 16 36 44.42 -22 26 28.4   008 – Algiers-Bouzareah AN 174
1906 06 01.89520 16 36 42.74 -22 26 23.8   008 – Algiers-Bouzareah AN 174
1906 06 02.89589 16 35 36.28 -22 22 38.6   008 – Algiers-Bouzareah AN 174
1906 06 02.92151 16 35 34.43 -22 22 33.7   008 – Algiers-Bouzareah AN 174
1906 06 05.89453 16 32 16.89 -22 11 07.8   008 – Algiers-Bouzareah AN 174
1906 06 05.91724 16 32 15.17 -22 11 03.9   008 – Algiers-Bouzareah AN 174
1906 06 09.88972 16 27 56.48 -21 55 35.2   008 – Algiers-Bouzareah AN 174
1906 06 09.92751 16 27 54.05 -21 55 26.1   008 – Algiers-Bouzareah AN 174
1906 06 12.60429 16 25 05.82 -21 44 45.9   337 – Sheshan, formerly Zo-Se AN 177
1906 06 14.90045 16 22 46.36 -21 35 52.6   008 – Algiers-Bouzareah AN 174
1906 06 14.91793 16 22 45.29 -21 35 48.3   008 – Algiers-Bouzareah AN 174
1906 06 14.95339 16 22 43.18 -21 35 40.6   030 – Arcetri Observatory, Florence AN 174
1906 06 15.90770 16 21 47.27 -21 31 58.1   008 – Algiers-Bouzareah AN 174
1906 06 15.92422 16 21 46.12 -21 31 49.5   008 – Algiers-Bouzareah AN 174
1906 06 16.87176 16 20 51.80 -21 28 15.9   008 – Algiers-Bouzareah AN 174
1906 06 16.90558 16 20 49.69 -21 28 08.8   008 – Algiers-Bouzareah AN 174
1906 06 17.68510 16 20 05.24 -21 25 05.7   337 – Sheshan, formerly Zo-Se AN 177
1906 06 18.87276 16 19 00.85 -21 20 41.6   008 – Algiers-Bouzareah AN 174
1906 06 18.89994 16 18 59.24 -21 20 35.0   008 – Algiers-Bouzareah AN 174
1906 06 20.86313 16 17 15.99 -21 13 20.6   008 – Algiers-Bouzareah AN 174
1906 06 21.94810 16 16 21.37 -21 09 25.9   020 – Nice BA 24
1906 06 25.91204 16 13 20.48 -20 55 49.7   020 – Nice BA 24
1908 01 09.90995 06 16 05.77 +21 44 56.2   000 – Greenwich MPC 24259
1908 01 11.91461 06 13 59.59 +21 44 21.8   000 – Greenwich MPC 24259
1915 03 14.881 09 48.9 +09 19 11.5   094 – Crimea-Simeiz PC 03
1916 07 23.92868 19 49 41.83 -17 33 08.2   024 – Heidelberg-Konigstuhl HD 17
1916 07 25.967 19 47.6 -17 36 10.3   008 – Algiers-Bouzareah JO 01
1916 07 26.93912 19 46 43.31 -17 36 59.6   024 – Heidelberg-Konigstuhl HD 17
1918 02 08.74742 08 03 12.61 +17 22 08.1 11.9 V 531 – Collegio Romano, Rome JO 02
1918 02 09.73649 08 02 17.23 +17 24 51.5 11.8 V 531 – Collegio Romano, Rome JO 02
1926 11 09.87869 23 19.5 -00 49 11   024 – Heidelberg-Konigstuhl BZ 08
1926 12 24.73963 00 09.1 +02 59.9   012 – Uccle RI 014
1926 12 26.73031 00 12.0 +03 15.55   012 – Uccle RI 014
1928 03 17.86163 09 28.4 +11 12.6   012 – Uccle RI 100
1929 06 13.96132 19 39.1 -19 43 10.1   094 – Crimea-Simeiz RI 210
1929 07 05.9326 19 21.56 -19 33 10.2   022 – Pino Torinese RI 230
1929 07 09.9785 19 17.3 -19 34 10.0   022 – Pino Torinese RI 230
1929 07 14.50093 19 12 38 -19 34.9 10.0   388 – Tokyo-Mitaka RI 215
1929 07 15.49746 19 11 37 -19 35.1 10.0   388 – Tokyo-Mitaka RI 215
1929 08 01.76612 18 56 24.64 -19 39 52.0 11.0   078 – Johannesburg RI 240
1929 08 01.78863 18 56 23.72 -19 39 52.5   078 – Johannesburg RI 240
1931 01 18.57509 08 04 00.57 +17 36 57.1   337 – Sheshan, formerly Zo-Se JO 15
1932 05 04.89618 15 53.28 -21 42.9 11.6   078 – Johannesburg RI 624
1932 05 06.00834 15 51.9 -21 49 11.0   094 – Crimea-Simeiz RI 621
1932 05 09.0000 15 49 15 -21 36.8 11.0   006 – Fabra Observatory, Barcelona RI 620
1932 05 29.89160 15 27.0 -19 55 10.2   094 – Crimea-Simeiz RI 629
1935 03 29.9792 13 26 20 -12 38.3 11.8   006 – Fabra Observatory, Barcelona RI 1159
1935 03 31.90443 13 24.2 -12 29 11.4   078 – Johannesburg RI 1172
1935 04 08.89055 13 16.4 -11 39 10.8   078 – Johannesburg RI 1172
1935 05 04.86076 12 52.6 -08 46 10.8   078 – Johannesburg RI 1185
1936 10 12.00 03 08.1 +20 32   012 – Uccle RI 1468
1936 10 14.93440 03 05.9 +20 21 10.7   057 – Belgrade RI 1470
1936 10 16.04997 03 05 01.34 +20 17 10.6   020 – Nice MPC 3209
1936 10 16.08910 03 04 59.35 +20 15 57.0   020 – Nice MPC 3209
1936 10 17.04 03 04.2 +20 14   012 – Uccle RI 1477
1936 10 20.99238 03 00.7 +19 55 10.5   029 – Hamburg-Bergedorf RI 1473
1936 10 24.01104 02 57.7 +19 40.1 10.5   022 – Pino Torinese RI 1479
1936 10 25.04467 02 56.7 +19 34.7 10.5   022 – Pino Torinese RI 1479
1936 11 16.47634 02 33 36.23 +17 15 53.8   337 – Sheshan, formerly Zo-Se RI 1509
1936 11 21.47416 02 29 20.43 +16 45 50.0   337 – Sheshan, formerly Zo-Se RI 1509
1938 02 25.00 11 36.8 -01 39   062 – Turku RI 1727
1938 02 25.067 11 36.8 -01 37   057 – Belgrade RI 1749
1938 02 27.959 11 34.2 -01 24   057 – Belgrade RI 1749
